カタログに戻る

STARLINK-11182

運用中通信VLEO
NORAD 60399·PAYLOAD·🇺🇸 United States

打ち上げ Aug 10, 2024 から Cape Canaveral Space Force Station

Loading…

次のパス (今後24時間)

TLE

最新Source: CelesTrak SupGP

元期: Sep 14, 2026, 20:47 UTC

1 60399C 24141B   26257.86645833  .00056300  00000+0  46377-3 0  2574
2 60399  53.1570 233.5322 0001070  97.1400  37.7055 15.69681003    16

AllMySatでSTARLINK-11182をリアルタイム追跡

Download on the App Store